Wetbulb
57.56 57.13 56.78 56.72 56.42 56.31 56.10 55.91 55.96 56.06 56.06 56.41 56.21 55.96 56.10 55.95 56.15 56.19 56.38 56.46 56.17 55.87 56.46 57.10 57.62 58.06 54.36 48.65 50.31 60.85 72.61 69.34 67.12 58.76 54.54 56.54 59.17 58.19 55.59 58.11 63.77 61.85 63.08 65.44 66.36 66.15 66.24
57.27 57.14 56.82 56.78 56.40 56.17 55.84 56.34 56.80 56.69 56.54 56.63 56.52 56.64 56.18 55.92 56.11 56.32 56.21 55.99 55.77 55.89 56.35 56.41 57.17 57.79 50.68 41.65 57.80 64.79 62.63 59.80 56.03 54.58 54.35 59.02 60.63 60.44 56.10 57.31 62.51 64.29 62.97 64.82 65.78 66.05 66.68
57.23 56.79 56.71 56.48 56.80 56.20 56.69 56.72 56.74 56.81 56.95 56.63 56.58 56.25 56.19 55.93 56.06 56.30 56.11 55.56 55.76 56.26 56.07 56.56 57.67 56.47 50.95 48.16 60.29 62.48 57.68 53.11 50.42 53.20 55.90 57.41 61.93 58.94 54.61 54.01 60.82 63.77 59.67 62.23 63.96 64.95 64.49
57.68 57.47 56.65 56.54 56.93 56.99 56.86 56.76 57.02 57.00 56.54 56.01 55.86 55.79 56.23 55.82 55.84 55.56 55.08 54.95 55.67 56.24 56.44 58.08 58.41 53.44 46.12 57.09 55.88 57.35 55.91 51.05 51.88 52.35 56.52 61.20 61.39 57.28 53.54 55.03 59.59 60.64 58.72 54.57 62.04 64.43 64.60
58.52 57.73 57.39 56.71 57.15 57.02 57.06 56.87 56.95 57.14 56.15 56.05 55.66 56.22 56.05 55.88 55.31 54.86 54.40 54.87 55.49 56.95 58.07 59.91 50.93 49.08 46.33 60.89 55.19 55.85 55.58 52.19 49.78 52.16 54.48 59.76 56.94 53.08 52.46 48.60 45.15 55.24 51.52 54.74 58.91 64.75 63.77
58.50 57.73 57.52 56.58 56.48 56.93 56.98 56.98 57.18 56.96 55.79 55.71 55.55 55.74 55.10 54.89 54.60 54.70 54.26 54.64 54.80 55.56 57.49 57.64 55.68 47.56 51.69 53.51 54.14 56.18 56.36 54.61 50.41 51.21 53.36 53.17 50.89 46.65 46.37 44.33 39.71 43.41 46.73 52.81 56.64 61.93 62.92
58.66 57.75 57.45 57.14 56.84 56.78 56.88 57.07 56.95 56.42 55.68 55.33 55.33 54.93 54.64 54.39 54.44 53.96 50.86 50.70 49.19 49.11 51.35 45.94 48.01 51.60 54.66 55.88 56.46 54.30 56.34 53.21 51.16 50.67 46.90 50.16 44.47 42.06 45.39 47.10 48.85 48.24 47.47 49.96 57.77 61.60 58.43
58.67 57.91 57.29 56.87 56.76 56.82 56.73 56.85 56.79 56.44 55.68 55.25 55.22 54.91 54.57 54.01 54.16 53.22 48.65 47.37 52.46 50.48 43.08 53.64 52.60 54.13 56.13 55.20 51.80 54.24 57.06 50.39 48.87 45.71 48.29 45.65 42.17 47.49 50.18 50.67 49.61 48.69 46.28 48.18 59.55 61.07 57.90
58.10 58.34 57.44 57.14 56.81 56.85 56.85 56.61 56.34 56.28 56.20 55.49 55.59 55.76 54.72 53.60 53.06 48.02 47.71 50.60 55.41 51.93 41.89 46.91 52.62 52.34 52.81 53.17 51.49 51.42 54.99 51.66 48.57 46.34 46.39 43.10 46.97 51.91 50.76 48.79 47.62 46.12 43.70 46.36 53.68 58.58 58.61
58.48 57.86 57.51 56.88 56.79 56.65 56.65 56.26 56.18 56.18 56.02 55.70 55.94 55.51 54.58 53.49 49.01 49.06 49.40 53.03 52.84 51.25 36.13 42.47 44.90 52.25 52.46 52.54 49.53 56.70 56.22 52.82 48.77 46.03 47.10 45.81 50.11 50.27 49.00 48.09 46.72 41.26 49.19 50.54 55.62 51.60 47.22
59.31 57.52 57.75 56.66 56.41 56.63 56.36 56.10 55.96 56.02 55.94 55.62 55.69 55.33 53.65 52.77 46.65 46.79 52.36 51.27 51.87 47.35 30.04 49.62 48.04 54.25 49.32 48.92 51.47 51.80 55.86 52.05 47.06 47.45 45.62 44.13 46.48 46.66 46.17 47.91 48.15 46.04 49.94 50.23 54.08 50.20 52.49
59.23 57.90 57.96 56.72 56.42 56.42 56.14 55.77 55.73 55.67 55.59 55.59 55.27 53.99 52.74 49.90 48.29 50.00 52.41 53.40 48.04 38.12 33.45 46.29 48.12 46.25 45.27 46.10 48.41 51.42 52.07 52.67 52.34 48.33 47.40 46.74 50.48 47.72 47.15 49.54 49.54 50.79 49.23 51.70 50.04 48.46 41.86
59.19 58.34 57.97 56.60 56.13 56.18 55.82 55.61 55.59 55.51 55.29 54.54 53.59 52.33 51.08 53.90 48.81 52.16 52.65 48.59 39.26 37.67 48.24 45.58 44.72 46.08 42.86 44.25 46.20 47.41 48.34 45.35 43.18 38.58 38.58 45.80 47.22 48.91 49.18 45.36 46.69 46.74 42.88 37.40 36.49 40.00 40.15
59.01 58.38 57.84 56.35 55.64 55.76 55.77 55.94 55.67 55.27 54.85 53.63 51.76 51.11 50.19 53.18 51.87 52.11 50.62 44.79 35.17 43.28 43.94 48.40 47.97 45.97 41.53 44.22 44.82 46.82 45.87 42.70 46.10 43.72 39.70 38.02 38.96 46.71 49.26 45.82 43.44 43.04 43.50 38.85 35.36 36.01 40.88
58.42 58.03 57.84 56.11 55.38 55.62 55.77 55.86 55.21 54.83 54.20 52.89 50.74 47.76 49.29 53.01 54.08 52.15 46.77 36.80 37.09 42.00 47.21 45.31 45.21 41.17 41.30 43.41 43.49 45.48 44.58 42.98 45.85 44.85 39.68 37.59 41.10 50.25 51.13 48.93 47.89 43.12 41.14 45.85 41.88 38.92 39.57
58.35 58.32 58.04 56.41 55.48 55.49 55.90 55.88 55.25 54.85 53.93 51.97 47.44 48.28 49.62 55.03 55.13 50.59 42.66 39.02 41.70 47.72 49.39 46.15 39.59 42.46 39.46 43.21 44.07 42.84 43.79 45.66 46.28 47.87 43.92 41.73 38.78 44.36 50.34 49.67 47.61 44.75 47.35 41.94 39.65 35.11 33.71
58.26 57.82 57.86 56.55 55.58 55.43 56.00 55.98 55.27 54.30 53.33 51.66 49.73 47.44 54.42 54.77 54.02 46.05 38.54 40.05 46.49 48.85 48.61 44.39 41.84 42.06 40.92 41.96 43.85 43.34 41.51 44.99 47.09 46.71 45.63 41.65 38.92 41.47 46.46 43.08 43.67 44.92 42.72 43.57 42.26 39.61 36.41
57.84 58.02 57.72 56.38 55.26 55.52 56.06 55.80 54.65 53.43 52.07 51.07 47.42 44.60 55.31 51.66 43.28 42.31 40.23 43.53 46.52 45.18 46.85 45.48 44.64 43.53 42.87 45.03 42.57 43.73 42.67 43.86 48.62 46.86 42.50 42.96 37.00 35.14 42.06 48.16 49.28 47.65 43.45 42.94 41.44 40.41 42.39
56.90 57.72 57.76 56.37 55.32 55.68 55.94 55.39 54.33 52.97 52.45 48.31 45.70 47.02 53.46 51.43 39.26 38.91 41.92 43.60 44.28 43.16 43.51 44.99 44.55 43.77 45.47 43.90 41.91 44.06 44.88 47.75 48.56 46.98 41.24 42.50 37.17 33.57 38.90 43.39 45.54 42.51 42.73 39.96 40.61 40.14 41.17
57.13 57.92 58.00 56.29 55.42 55.73 55.84 55.19 54.26 53.42 52.81 48.58 46.77 43.95 45.46 44.06 40.78 40.79 39.37 39.94 40.29 45.88 44.79 45.31 45.14 45.95 43.27 41.22 43.86 42.98 44.77 46.90 48.08 46.28 55.53 48.29 36.96 38.17 34.69 41.04 41.64 40.25 43.26 43.22 39.42 35.59 41.91
57.13 58.10 57.88 56.43 55.47 55.60 55.70 55.03 54.69 53.88 52.57 49.83 47.86 44.38 42.37 38.21 40.06 39.58 40.30 41.94 42.92 41.68 45.42 44.70 44.40 45.58 42.14 36.26 40.48 42.07 44.58 45.54 46.47 50.51 45.94 42.83 37.42 37.63 44.32 43.93 43.74 42.57 43.27 44.48 38.99 41.60 42.80
57.20 57.94 57.56 56.51 55.39 55.44 55.58 55.29 55.05 54.04 52.39 52.46 45.61 45.94 47.22 41.84 42.63 40.97 39.86 38.28 42.00 42.22 42.98 42.20 43.48 46.74 45.28 39.94 40.98 39.00 42.22 41.17 40.99 45.92 43.21 40.87 38.37 38.48 39.81 46.42 44.76 41.95 44.34 46.53 48.97 50.87 48.86
57.06 57.66 57.82 56.77 55.45 55.20 55.64 55.35 55.35 54.16 51.49 50.38 52.46 51.27 48.54 44.48 40.32 38.92 38.23 40.17 44.65 45.34 45.36 47.23 47.07 44.03 42.65 44.16 46.95 46.35 44.22 43.31 41.39 41.21 41.76 41.89 36.94 35.14 33.27 42.73 44.00 37.81 41.43 43.43 48.31 51.83 49.53
56.64 57.46 57.98 57.05 55.33 54.98 55.44 55.42 55.65 54.91 52.88 48.45 51.31 49.64 46.77 44.13 40.40 41.37 44.98 46.57 45.88 45.13 43.30 45.24 46.05 43.23 45.55 46.95 45.77 43.98 42.67 41.38 42.74 40.94 40.50 37.61 36.95 34.97 32.73 37.11 31.61 41.98 46.94 46.41 47.90 49.87 49.76
56.12 56.82 57.90 57.23 55.45 54.97 55.30 55.48 55.90 55.35 54.22 49.08 50.28 50.07 48.27 44.15 45.19 43.90 44.83 44.15 44.37 43.88 43.06 45.07 45.74 45.33 45.28 44.18 38.99 34.92 36.12 37.56 41.65 41.70 38.73 39.11 35.83 33.00 31.81 30.59 37.24 43.83 45.09 43.84 41.76 44.31 51.04
55.84 55.42 56.34 57.48 55.52 54.50 54.89 55.09 55.68 55.47 54.22 50.10 49.70 53.91 50.94 46.84 42.63 48.16 45.04 45.47 41.84 40.30 41.39 43.94 45.48 46.58 45.15 40.69 38.97 32.35 29.63 37.21 37.61 41.21 40.44 39.36 37.25 34.86 33.31 30.88 28.89 38.26 46.15 48.48 48.89 39.60 49.83
55.23 55.09 55.19 57.40 55.66 53.70 54.31 54.89 54.92 55.52 54.38 51.44 49.30 53.41 51.44 47.30 48.60 46.85 45.21 44.09 45.36 42.66 40.44 41.25 41.81 42.18 43.61 38.00 37.14 31.85 32.93 41.82 33.01 35.61 35.90 35.24 32.99 31.13 33.08 31.94 38.35 44.35 46.35 48.42 36.61 38.19 48.56
54.40 54.56 54.72 56.78 55.72 53.68 54.20 54.47 54.73 54.91 55.17 51.92 50.38 53.34 51.24 47.32 49.10 51.35 50.88 46.74 47.33 44.87 40.78 42.93 42.32 43.74 39.48 36.58 37.47 33.89 32.50 35.98 33.45 37.67 35.45 35.05 31.13 28.91 32.25 28.78 29.35 47.10 46.85 40.66 42.78 44.16 46.42
53.76 53.89 55.11 56.28 55.41 53.82 54.17 54.16 54.16 54.74 54.82 54.20 51.15 55.31 55.99 49.30 49.85 53.07 53.52 52.65 53.00 51.21 46.18 42.68 43.68 42.58 41.88 39.22 39.34 38.93 35.29 36.96 35.25 30.12 38.82 32.28 38.22 34.82 36.39 35.85 43.62 45.92 45.88 46.74 47.41 45.77 45.22
MSLP
1021.49 1021.21 1020.95 1020.60 1020.33 1020.03 1019.72 1019.42 1019.05 1018.70 1018.35 1017.98 1017.63 1017.33 1017.03 1016.83 1016.52 1016.35 1016.24 1015.97 1015.83 1015.63 1015.32 1015.19 1014.91 1014.69 1014.37 1013.63 1010.53 1007.67 1007.42 1008.19 1008.83 1009.29 1009.57 1009.73 1009.90 1010.08 1009.87 1009.17 1009.62 1010.21 1010.07 1010.23 1010.26 1009.83 1009.86
1021.47 1021.23 1020.89 1020.54 1020.20 1019.85 1019.54 1019.27 1018.94 1018.54 1018.17 1017.85 1017.63 1017.31 1016.84 1016.46 1016.22 1015.99 1015.79 1015.72 1015.57 1015.43 1015.13 1015.05 1014.84 1014.62 1014.36 1012.23 1007.91 1007.69 1007.91 1008.51 1008.69 1009.14 1009.29 1009.48 1009.14 1009.24 1009.08 1008.75 1009.02 1008.85 1009.58 1010.30 1010.29 1010.21 1010.15
1021.47 1021.10 1020.78 1020.46 1020.03 1019.66 1019.34 1018.98 1018.61 1018.33 1018.06 1017.74 1017.36 1017.03 1016.74 1016.37 1015.95 1015.66 1015.42 1015.28 1015.19 1015.03 1014.91 1014.69 1014.61 1014.31 1013.58 1009.86 1007.78 1007.91 1008.19 1008.39 1008.44 1008.62 1008.90 1008.74 1008.84 1009.38 1008.71 1008.29 1007.71 1008.11 1009.12 1010.10 1009.96 1010.07 1010.73
1021.40 1021.05 1020.67 1020.19 1019.83 1019.57 1019.25 1018.88 1018.46 1018.09 1017.75 1017.49 1017.12 1016.80 1016.39 1015.97 1015.68 1015.39 1015.10 1014.85 1014.72 1014.55 1014.47 1014.19 1014.29 1014.13 1011.99 1008.17 1008.03 1008.35 1008.37 1008.33 1008.40 1008.59 1008.46 1008.43 1008.94 1009.14 1009.02 1008.18 1008.11 1008.43 1009.12 1009.25 1009.26 1009.90 1010.66
1021.26 1020.92 1020.50 1020.14 1019.81 1019.42 1019.00 1018.59 1018.19 1017.74 1017.36 1017.06 1016.67 1016.41 1016.03 1015.62 1015.29 1015.04 1014.68 1014.45 1014.16 1014.04 1013.95 1013.67 1014.19 1013.66 1010.43 1007.32 1007.82 1007.18 1007.69 1007.83 1008.26 1008.55 1008.49 1008.45 1008.86 1008.71 1008.28 1008.61 1009.06 1009.00 1009.06 1008.79 1009.11 1009.49 1010.43
1021.15 1020.81 1020.46 1020.09 1019.69 1019.25 1018.77 1018.40 1017.95 1017.51 1017.03 1016.69 1016.41 1015.97 1015.63 1015.29 1015.09 1014.87 1014.31 1013.77 1013.61 1013.66 1013.71 1013.67 1013.15 1012.95 1009.41 1007.15 1006.27 1006.62 1006.98 1007.32 1008.12 1008.46 1008.89 1008.83 1009.03 1008.83 1009.05 1009.43 1009.49 1009.31 1009.13 1008.67 1008.82 1009.71 1010.71
1021.07 1020.68 1020.30 1019.89 1019.52 1019.12 1018.68 1018.19 1017.73 1017.33 1016.88 1016.53 1016.21 1015.89 1015.65 1015.24 1014.84 1014.68 1014.22 1013.56 1013.83 1013.50 1012.95 1011.39 1010.53 1009.61 1007.92 1006.59 1005.96 1006.24 1006.65 1007.27 1007.89 1008.59 1009.03 1008.75 1009.40 1009.22 1009.26 1009.36 1009.18 1009.17 1009.04 1008.79 1008.79 1009.75 1011.37
1021.10 1020.66 1020.15 1019.71 1019.34 1018.93 1018.55 1018.08 1017.61 1017.15 1016.66 1016.22 1015.91 1015.57 1015.20 1014.91 1014.74 1014.60 1014.69 1013.67 1011.23 1010.52 1010.55 1009.43 1008.76 1008.34 1007.06 1006.95 1006.51 1006.08 1006.31 1007.45 1008.02 1008.67 1008.93 1009.35 1009.32 1009.01 1009.03 1009.05 1009.04 1008.95 1009.00 1009.13 1009.33 1009.71 1010.29
1021.02 1020.63 1020.13 1019.60 1019.08 1018.66 1018.26 1017.85 1017.49 1017.00 1016.54 1016.02 1015.52 1015.01 1014.56 1014.57 1014.28 1014.39 1013.79 1011.75 1009.32 1010.14 1010.29 1007.89 1007.23 1007.05 1006.25 1006.27 1006.26 1005.76 1006.22 1006.87 1007.65 1008.60 1008.99 1009.35 1008.75 1008.68 1008.94 1008.83 1008.91 1008.74 1008.80 1008.76 1009.23 1010.31 1011.23
1020.66 1020.31 1019.88 1019.42 1018.89 1018.41 1017.97 1017.57 1017.21 1016.71 1016.24 1015.69 1015.07 1014.81 1014.32 1013.87 1014.42 1013.31 1012.07 1009.22 1009.33 1010.17 1010.19 1008.00 1006.35 1005.33 1005.06 1005.02 1005.69 1005.26 1005.63 1006.44 1007.10 1008.03 1008.80 1008.92 1008.33 1008.53 1008.63 1008.53 1008.51 1008.53 1007.86 1008.18 1009.01 1009.84 1011.03
1020.60 1020.19 1019.70 1019.29 1018.81 1018.27 1017.76 1017.31 1016.73 1016.33 1015.93 1015.34 1014.85 1014.63 1014.28 1013.99 1013.81 1012.80 1009.79 1009.21 1009.22 1009.53 1009.79 1007.58 1005.91 1004.39 1004.57 1005.22 1005.27 1005.37 1005.34 1006.13 1006.94 1007.61 1008.46 1008.26 1007.89 1007.99 1008.04 1007.62 1007.69 1007.51 1007.29 1007.83 1008.25 1009.69 1010.69
1020.44 1019.97 1019.51 1019.08 1018.68 1018.11 1017.49 1016.99 1016.41 1015.77 1015.32 1014.95 1014.49 1014.18 1014.03 1013.91 1013.73 1010.65 1009.84 1009.43 1009.29 1010.37 1009.83 1007.71 1005.65 1005.19 1005.40 1005.56 1005.61 1005.59 1005.79 1006.23 1006.82 1007.71 1008.01 1007.96 1006.98 1007.10 1006.68 1006.43 1006.48 1006.61 1007.23 1007.57 1008.61 1009.75 1011.06
1020.28 1019.81 1019.38 1018.89 1018.47 1017.95 1017.36 1016.78 1016.18 1015.41 1014.84 1014.62 1014.18 1013.81 1013.95 1012.74 1011.13 1009.75 1009.80 1010.08 1010.83 1010.95 1010.13 1008.75 1007.45 1006.82 1006.21 1006.29 1006.24 1006.33 1006.62 1007.07 1007.75 1008.31 1008.68 1007.69 1006.81 1006.33 1006.11 1006.28 1005.94 1006.45 1007.99 1009.01 1010.23 1010.73 1010.93
1020.09 1019.59 1019.21 1018.77 1018.29 1017.71 1017.05 1016.51 1016.03 1015.11 1014.23 1013.80 1013.36 1013.43 1012.46 1011.40 1009.96 1010.09 1010.62 1011.11 1011.51 1011.71 1010.49 1009.18 1008.08 1006.81 1006.77 1006.54 1006.59 1006.81 1007.29 1007.84 1008.00 1008.65 1009.06 1008.41 1007.08 1005.88 1005.40 1005.52 1005.73 1006.49 1007.69 1008.95 1009.80 1010.90 1010.85
1019.96 1019.53 1019.09 1018.57 1018.05 1017.61 1017.04 1016.52 1015.79 1014.83 1013.87 1013.20 1012.30 1012.21 1012.00 1009.27 1009.90 1010.55 1011.34 1012.05 1011.69 1011.27 1010.40 1009.52 1007.89 1007.42 1007.45 1006.91 1006.87 1007.27 1007.76 1008.02 1008.00 1008.45 1009.15 1008.63 1007.30 1005.83 1005.18 1004.92 1005.28 1006.32 1007.32 1008.11 1009.54 1010.49 1010.99
1019.73 1019.43 1019.09 1018.57 1018.02 1017.42 1016.89 1016.32 1015.59 1014.60 1013.51 1012.81 1012.45 1011.82 1010.12 1007.47 1009.10 1010.27 1011.57 1011.76 1011.34 1010.43 1009.71 1009.35 1009.21 1008.86 1008.60 1008.05 1008.03 1007.86 1008.48 1008.61 1008.56 1008.48 1008.39 1008.79 1008.19 1006.69 1005.69 1005.15 1005.11 1005.76 1007.00 1008.50 1010.05 1011.19 1012.33
1019.59 1019.20 1018.98 1018.69 1018.17 1017.55 1016.88 1016.43 1015.69 1014.64 1013.45 1012.81 1012.65 1011.81 1007.91 1007.53 1008.68 1010.71 1011.84 1011.33 1010.43 1009.55 1009.27 1008.93 1009.16 1009.41 1009.46 1008.83 1009.21 1009.35 1009.55 1009.13 1008.59 1008.50 1008.60 1008.97 1008.98 1008.19 1006.96 1006.44 1006.23 1006.75 1007.47 1008.92 1010.15 1011.17 1012.38
1019.38 1019.15 1018.83 1018.50 1018.13 1017.56 1016.96 1016.45 1015.97 1015.15 1013.57 1012.89 1012.69 1011.63 1007.87 1007.52 1009.66 1010.93 1011.33 1010.46 1009.76 1009.52 1009.09 1008.91 1009.02 1009.52 1009.77 1009.57 1010.15 1010.01 1009.91 1009.38 1008.77 1009.03 1009.71 1009.96 1010.24 1009.94 1008.61 1007.17 1006.90 1006.95 1008.06 1009.03 1010.55 1011.77 1012.70
1019.25 1018.92 1018.49 1018.10 1017.71 1017.25 1016.69 1016.09 1015.75 1015.47 1015.00 1014.65 1013.43 1011.59 1007.96 1008.17 1009.96 1011.34 1010.77 1010.09 1009.84 1009.57 1009.54 1009.57 1009.78 1009.83 1010.15 1010.67 1010.87 1010.73 1010.20 1009.64 1009.31 1009.53 1010.19 1010.34 1010.80 1010.60 1009.52 1008.59 1008.27 1008.68 1009.13 1009.62 1010.18 1011.10 1012.44
1019.09 1018.71 1018.35 1018.00 1017.66 1017.03 1016.51 1015.94 1015.40 1015.11 1014.79 1014.97 1013.95 1012.35 1010.32 1009.77 1010.30 1010.58 1010.85 1010.71 1010.30 1009.80 1009.90 1009.86 1010.26 1010.20 1010.96 1011.69 1011.49 1011.36 1010.83 1010.15 1009.92 1010.07 1010.40 1010.46 1011.51 1011.74 1011.61 1011.19 1010.63 1010.23 1009.32 1009.40 1010.39 1011.48 1012.49
1018.99 1018.64 1018.36 1018.03 1017.56 1017.06 1016.38 1015.56 1014.95 1014.24 1013.59 1013.78 1013.36 1012.77 1011.70 1011.40 1011.19 1011.02 1011.04 1010.95 1010.85 1010.79 1010.81 1010.74 1011.04 1011.11 1011.58 1012.37 1012.54 1012.35 1011.80 1011.27 1010.69 1010.80 1010.68 1011.33 1012.23 1012.02 1011.43 1011.19 1011.09 1010.83 1010.28 1009.64 1010.03 1010.93 1012.17
1018.72 1018.42 1018.12 1017.57 1017.31 1017.08 1016.63 1015.82 1015.04 1014.21 1013.67 1013.21 1013.22 1012.98 1011.93 1011.96 1011.72 1011.55 1011.54 1011.79 1011.37 1011.43 1011.62 1012.05 1012.19 1012.17 1012.05 1012.66 1012.87 1012.84 1012.58 1012.43 1012.19 1011.95 1012.01 1012.33 1013.13 1012.94 1012.84 1011.91 1011.67 1011.28 1010.51 1009.96 1009.90 1010.64 1012.41
1018.36 1017.94 1017.79 1017.73 1017.45 1017.05 1016.64 1015.89 1015.37 1014.49 1013.28 1014.01 1013.45 1012.72 1012.65 1012.65 1012.33 1012.07 1012.11 1011.80 1011.81 1011.68 1012.20 1012.23 1012.35 1012.47 1012.73 1012.70 1012.53 1012.46 1012.84 1012.94 1012.84 1013.00 1013.36 1013.57 1014.23 1014.74 1014.60 1013.50 1012.94 1012.51 1012.04 1011.27 1011.12 1011.07 1011.91
1018.30 1018.05 1017.79 1017.51 1017.14 1016.94 1016.61 1016.09 1015.65 1015.43 1015.04 1015.05 1014.07 1013.77 1013.60 1013.52 1012.77 1012.11 1012.00 1011.90 1012.08 1012.20 1012.36 1012.47 1012.50 1012.80 1012.92 1012.70 1012.67 1012.71 1013.01 1013.14 1013.03 1013.21 1013.67 1014.60 1015.27 1015.65 1015.97 1014.60 1013.74 1012.78 1012.35 1011.93 1012.17 1012.31 1012.81
1018.33 1018.02 1017.70 1017.49 1017.25 1017.17 1016.70 1015.97 1015.71 1015.57 1015.19 1014.95 1013.94 1013.94 1014.11 1013.87 1013.05 1012.24 1011.99 1012.17 1012.29 1012.56 1012.67 1012.67 1012.70 1012.86 1013.03 1013.40 1014.11 1014.78 1015.02 1014.63 1014.47 1014.01 1014.49 1014.91 1015.92 1016.81 1017.03 1016.51 1015.20 1013.38 1012.68 1012.72 1013.05 1014.47 1014.04
1018.11 1017.95 1017.61 1017.26 1017.06 1016.95 1016.61 1016.33 1015.74 1015.54 1015.16 1014.62 1014.02 1013.57 1013.78 1013.86 1012.87 1011.69 1011.76 1011.96 1012.56 1012.87 1013.16 1013.03 1012.77 1012.64 1013.17 1014.51 1015.65 1016.69 1017.12 1016.86 1016.41 1015.63 1015.08 1015.73 1016.35 1017.34 1018.08 1017.63 1016.21 1014.58 1013.69 1013.21 1012.69 1014.69 1015.06
1017.88 1017.65 1017.47 1017.04 1016.77 1016.91 1016.55 1016.28 1015.47 1015.52 1015.41 1015.32 1014.16 1013.29 1013.63 1013.83 1012.39 1011.57 1011.54 1011.57 1011.83 1012.58 1013.41 1013.36 1013.29 1013.36 1013.89 1015.75 1017.27 1018.25 1018.35 1017.70 1017.63 1017.29 1017.27 1017.46 1018.16 1018.55 1018.57 1017.87 1016.41 1015.07 1014.21 1013.28 1014.23 1015.23 1014.89
1017.79 1017.52 1017.30 1017.00 1016.71 1016.80 1016.33 1016.25 1015.87 1015.35 1015.27 1015.28 1014.33 1013.28 1013.65 1013.83 1012.62 1011.66 1010.96 1011.07 1011.51 1012.27 1013.23 1013.45 1013.98 1014.39 1015.24 1016.71 1017.90 1018.79 1018.81 1018.60 1018.45 1018.02 1017.89 1018.40 1018.85 1019.16 1018.91 1018.25 1016.97 1015.21 1014.51 1014.73 1015.68 1015.68 1015.37
1017.61 1017.32 1017.05 1016.81 1016.64 1016.55 1016.30 1016.09 1015.78 1015.44 1015.30 1014.97 1014.78 1013.24 1013.21 1013.77 1012.77 1011.71 1010.95 1010.42 1010.68 1011.25 1012.13 1013.15 1014.01 1014.64 1015.29 1016.73 1017.76 1018.46 1018.99 1018.97 1019.07 1018.82 1018.03 1018.57 1018.07 1018.21 1018.50 1017.94 1016.63 1015.68 1015.49 1015.57 1015.73 1016.12 1016.54
Wind_Speed
12 13 13 13 14 14 14 14 14 14 14 14 13 13 13 15 14 13 14 14 14 14 14 14 12 10 4 0 11 3 7 16 7 7 7 6 5 4 6 4 7 2 4 2 9 13 13
13 13 13 13 14 14 14 14 14 14 14 13 14 15 15 14 15 15 14 14 14 15 13 12 9 5 1 3 5 8 9 8 6 7 7 7 7 8 6 6 10 8 10 11 7 12 10
14 14 14 14 14 13 14 13 13 13 14 15 14 15 16 17 16 16 15 15 15 15 13 8 6 3 2 13 3 6 7 6 4 8 6 12 7 1 6 7 7 4 6 13 14 10 7
12 13 15 15 14 14 15 15 15 14 14 15 15 15 15 16 16 16 15 14 14 14 10 7 4 3 9 6 6 2 5 3 5 6 6 2 3 5 6 4 3 4 3 5 11 14 15
13 13 14 16 15 15 15 16 16 15 15 14 14 14 14 14 15 15 14 13 15 11 6 4 4 2 11 11 8 10 10 6 5 4 6 10 3 6 3 2 4 1 5 3 5 18 10
14 14 14 17 16 15 16 16 16 16 17 16 16 14 14 14 14 12 14 17 6 4 2 6 6 3 7 4 4 6 9 7 5 3 3 3 2 1 4 5 5 6 4 2 9 16 7
14 15 15 15 16 16 16 17 17 18 19 17 16 15 16 14 11 10 9 2 3 2 3 9 8 6 8 4 2 4 7 7 3 4 5 3 4 6 7 6 6 3 4 4 9 16 9
15 15 15 15 15 16 16 17 18 19 20 18 16 16 14 13 10 7 1 2 8 3 8 15 15 11 13 1 3 7 10 6 5 5 3 5 5 8 5 7 7 6 3 1 6 10 9
16 15 14 14 14 15 16 17 17 18 18 19 17 14 13 13 11 1 4 9 7 8 3 9 7 7 7 9 8 9 11 6 6 6 5 6 7 7 6 8 8 7 5 4 7 9 7
15 14 14 14 15 15 16 17 17 18 18 18 16 14 13 16 3 2 6 8 6 7 5 8 3 7 4 7 4 8 7 7 2 9 5 7 7 6 9 10 7 8 8 8 14 6 7
12 16 15 15 15 15 16 17 17 18 17 17 15 12 9 4 4 2 8 7 6 5 4 13 3 3 2 7 7 4 6 3 5 6 7 9 5 7 9 16 8 12 6 8 10 7 7
14 16 15 15 16 16 15 16 18 18 17 16 14 11 9 3 2 10 9 11 5 7 3 10 2 3 4 2 1 2 7 4 2 2 3 8 7 8 11 12 12 10 2 3 5 4 3
13 14 15 15 16 16 16 16 18 20 19 16 15 11 6 3 6 2 6 5 7 5 6 6 6 5 4 7 5 5 6 4 5 3 3 5 6 8 5 7 5 5 7 2 2 1 6
13 14 14 15 15 16 17 16 18 21 23 19 15 13 8 7 2 4 5 7 8 3 7 6 9 10 9 7 7 6 6 4 4 5 2 2 7 6 3 9 7 5 10 7 5 5 5
14 15 14 14 15 16 17 17 17 20 23 22 20 2 3 7 6 3 6 6 4 5 6 6 11 8 7 5 4 6 9 5 5 5 7 1 5 4 4 5 9 4 3 8 2 1 2
13 14 14 14 15 16 16 16 18 21 23 19 2 3 5 5 10 6 6 3 3 5 3 2 6 6 4 7 6 6 4 3 3 4 2 3 3 1 8 1 2 8 4 3 3 3 3
13 14 13 15 16 16 16 17 17 21 24 10 3 4 7 9 6 6 3 5 5 4 6 2 4 5 4 4 5 5 4 4 4 7 6 4 4 9 3 1 8 5 3 6 5 4 6
14 14 13 14 16 17 16 16 17 17 23 3 2 2 3 4 5 1 1 4 1 6 7 7 3 4 4 7 6 5 4 4 7 3 4 1 4 2 4 7 4 5 2 5 6 4 2
15 13 12 12 14 17 16 15 15 12 10 3 2 4 5 6 1 2 6 1 4 6 5 7 6 4 4 3 4 3 3 3 7 6 3 4 3 4 10 7 10 7 5 4 2 3 6
13 13 11 13 15 16 16 16 17 15 3 2 2 3 5 6 1 7 4 4 3 5 5 4 3 8 7 7 7 5 6 3 3 3 2 3 4 5 5 4 1 5 11 6 5 3 3
12 12 11 12 14 16 16 16 18 21 19 6 2 3 4 2 5 4 6 4 9 5 7 10 10 5 5 4 5 5 5 6 3 7 4 5 3 2 6 7 5 3 8 14 2 5 5
10 11 10 10 12 15 16 17 19 23 17 3 3 4 6 3 4 8 6 6 7 4 5 5 7 9 6 5 2 1 1 5 2 7 5 6 2 3 6 6 9 7 14 12 6 10 12
10 10 9 11 12 13 15 15 16 19 15 3 4 4 5 4 4 6 1 3 5 5 6 7 5 5 7 3 2 3 1 1 3 2 5 5 3 4 1 4 3 5 7 8 6 6 16
11 11 10 9 10 12 13 15 14 14 10 1 3 2 4 4 2 4 7 5 5 2 5 3 7 4 4 6 3 5 3 6 4 5 4 3 3 3 1 5 4 4 6 7 8 5 9
11 11 10 9 10 12 13 14 14 14 12 1 3 3 3 1 2 6 9 5 3 4 3 3 2 3 3 5 4 5 6 5 8 5 5 5 4 3 4 1 5 2 5 2 5 6 11
11 12 11 8 8 10 12 14 13 14 16 1 3 2 3 3 4 2 5 6 4 3 2 1 1 2 5 3 3 3 1 3 3 8 7 7 7 6 2 3 3 3 2 5 11 1 2
11 12 11 8 6 10 12 13 12 14 14 4 4 0 4 2 5 3 3 3 3 3 3 2 2 3 5 3 4 3 1 3 1 2 4 4 4 4 1 2 4 4 7 3 7 7 5
12 12 12 9 5 8 9 11 12 13 14 6 5 3 4 1 6 5 4 3 4 4 5 5 6 6 4 4 4 3 3 3 4 2 2 3 3 2 2 2 4 4 6 5 5 4 5
12 11 11 9 5 7 8 9 9 10 12 9 3 4 1 3 6 2 5 1 7 6 6 2 6 4 5 5 2 3 2 2 4 2 0 2 7 6 7 7 7 4 5 4 5 6 3
Wind_Direction
1 359 353 351 348 346 343 339 336 333 329 325 323 320 320 318 315 314 315 314 313 314 316 318 322 323 350 30 251 262 102 161 139 153 189 196 205 177 213 201 135 220 96 69 204 163 152
359 355 354 350 348 343 341 338 333 330 326 322 321 318 317 313 310 310 309 310 309 307 310 312 313 329 201 278 247 151 133 142 169 166 192 187 211 199 241 215 209 173 128 124 246 189 141
354 353 352 350 344 341 335 333 330 327 324 323 322 321 318 314 310 308 307 306 303 302 303 301 292 240 297 237 300 131 140 181 186 179 171 218 237 283 350 322 273 192 103 163 208 180 117
347 352 353 347 343 339 336 335 332 331 330 329 326 323 319 313 311 309 306 301 297 298 294 278 225 229 246 233 234 252 200 205 201 224 232 255 196 263 210 262 57 97 6 155 192 172 164
350 349 346 346 344 339 334 332 332 329 332 328 327 323 322 317 316 313 303 291 292 288 284 179 129 201 265 302 171 218 170 179 183 250 269 273 337 222 9 67 45 239 215 163 129 183 148
351 350 349 349 344 337 333 332 329 329 333 330 329 326 324 322 319 312 302 291 267 306 198 182 255 331 279 249 195 158 191 156 167 168 332 229 184 156 47 79 204 188 190 156 155 189 137
352 349 349 348 342 338 334 330 330 335 334 333 333 334 331 328 325 323 342 44 41 45 245 192 198 239 281 257 212 199 179 140 164 118 177 228 101 205 217 204 231 287 315 313 125 140 111
346 346 346 343 342 337 334 332 331 333 338 336 335 334 334 330 321 342 318 247 214 154 296 227 234 237 267 349 257 227 124 147 144 192 184 16 211 226 221 258 261 273 287 16 72 147 96
349 339 338 340 340 337 334 333 334 330 332 336 330 322 325 321 318 326 210 234 258 56 321 290 201 200 223 153 223 224 142 172 155 183 171 167 232 211 218 264 264 265 209 207 145 98 90
349 340 336 336 336 337 335 335 334 330 333 332 326 328 328 318 295 300 248 252 262 135 46 280 197 265 223 151 183 193 165 153 137 186 202 210 238 219 230 251 220 253 215 227 150 136 174
333 343 338 334 334 334 335 334 333 330 330 333 325 319 316 343 283 268 241 330 322 71 9 335 207 248 124 121 149 241 191 108 170 177 119 240 223 207 222 233 188 238 231 203 185 156 106
334 341 334 333 333 332 333 333 332 328 327 324 316 311 317 161 226 241 330 315 49 50 288 316 201 208 112 318 212 359 169 118 104 236 303 236 239 171 215 238 229 234 74 49 66 114 117
328 336 331 332 331 330 332 335 332 328 328 323 310 295 281 292 241 49 344 26 52 59 344 305 351 337 189 198 240 151 165 177 154 104 304 285 257 238 188 239 330 126 72 352 30 116 204
323 327 331 332 331 328 330 336 336 331 325 328 315 301 227 232 263 5 42 50 70 210 263 276 279 270 189 172 217 168 145 181 223 119 36 261 311 179 209 183 195 164 148 156 182 183 225
328 332 327 328 330 330 331 339 338 333 329 330 316 124 238 251 177 124 63 52 184 178 256 286 327 35 5 329 178 121 167 197 200 164 178 262 267 340 339 215 130 270 142 185 83 12 43
322 331 326 326 329 332 335 339 338 335 331 338 10 351 258 210 134 75 71 266 200 226 256 230 27 8 45 9 48 57 99 324 39 23 234 222 271 274 296 280 210 139 190 67 6 182 210
322 328 327 329 329 332 336 342 342 338 333 351 14 8 263 129 88 53 119 238 260 263 210 89 25 24 23 49 40 27 357 11 18 354 32 45 85 302 2 101 202 25 52 58 118 128 163
323 327 330 332 330 332 338 348 343 340 333 58 12 349 227 57 67 94 169 210 329 3 10 7 81 81 42 27 37 47 51 38 3 9 24 44 114 289 257 279 250 149 128 131 131 248 99
331 327 326 332 332 331 335 350 340 342 7 327 333 260 326 99 122 286 293 47 75 27 18 20 15 32 62 74 68 43 36 12 31 49 93 322 4 22 348 13 10 34 359 88 146 80 183
327 325 329 333 333 332 339 348 342 333 311 166 79 351 326 45 189 111 79 355 113 24 24 30 360 56 59 32 4 41 10 14 44 78 199 91 55 126 165 235 278 338 346 23 112 92 155
328 327 333 332 332 333 343 352 346 335 336 156 109 270 206 299 334 48 78 56 58 20 21 15 17 26 112 57 51 25 327 357 31 348 26 85 53 358 69 353 7 323 349 348 332 181 148
327 321 321 320 333 341 345 357 353 344 352 30 72 41 344 343 1 80 27 342 94 38 66 352 63 57 53 83 126 133 208 38 96 334 30 356 358 20 40 312 2 9 4 0 11 107 69
311 310 316 331 340 343 345 358 360 357 354 41 319 330 97 299 21 85 302 64 50 113 36 75 56 72 46 44 195 240 114 185 233 63 11 58 81 53 49 309 153 18 332 346 344 51 140
309 319 321 330 335 342 347 358 1 1 26 200 254 81 62 310 99 135 96 87 79 71 128 47 73 101 275 348 349 358 23 340 53 23 94 89 78 85 228 358 126 135 290 36 63 65 99
320 321 322 327 342 345 345 358 358 355 359 243 284 77 92 295 269 102 115 123 113 67 95 92 44 186 351 15 47 37 350 21 338 327 68 85 100 62 107 124 291 2 44 71 23 16 135
315 320 321 327 345 337 349 353 358 357 356 331 275 161 109 109 295 173 139 150 175 168 32 63 297 253 69 80 71 98 170 226 321 349 21 57 70 112 109 104 200 254 314 313 95 352 354
311 315 319 317 335 334 343 352 5 359 355 336 280 261 96 105 270 35 119 164 133 109 138 216 222 341 66 63 68 104 279 196 82 61 332 358 12 117 109 191 281 309 321 320 107 230 148
306 309 312 312 332 325 341 350 360 4 356 10 274 287 107 109 287 357 14 75 30 75 132 251 42 353 39 62 105 241 109 244 63 272 151 138 110 219 79 102 265 304 6 100 218 7 112
296 302 304 306 313 316 339 347 356 5 355 354 310 309 23 129 236 258 261 203 133 181 134 32 168 179 181 88 55 111 76 84 154 265 26 336 173 181 155 214 232 285 111 103 123 115 64